TimeCDT,TemperatureF,Dew PointF,Humidity,Sea Level PressureIn,VisibilityMPH,Wind Direction,Wind SpeedMPH,Gust SpeedMPH,PrecipitationIn,Events,Conditions,WindDirDegrees,DateUTC
12:14 AM,50.5,40.3,68,29.75,10.0,WNW,21.9,27.6,N/A,,Clear,290,2012-10-04 05:14:00
12:35 AM,48.6,40.6,74,29.79,10.0,WNW,21.9,31.1,N/A,,Clear,290,2012-10-04 05:35:00
12:54 AM,47.8,40.8,77,29.81,10.0,West,26.5,32.2,N/A,,Scattered Clouds,280,2012-10-04 05:54:00
1:14 AM,48.4,41.0,76,29.82,10.0,WNW,27.6,34.5,N/A,,Overcast,290,2012-10-04 06:14:00
1:35 AM,47.8,40.5,76,29.85,10.0,West,26.5,38.0,N/A,,Overcast,280,2012-10-04 06:35:00
1:54 AM,46.4,39.9,78,29.87,10.0,West,32.2,41.4,N/A,,Overcast,280,2012-10-04 06:54:00
2:14 AM,45.7,39.6,79,29.88,10.0,West,31.1,39.1,N/A,,Overcast,280,2012-10-04 07:14:00
2:35 AM,45.3,39.4,80,29.88,10.0,West,27.6,35.7,N/A,,Overcast,280,2012-10-04 07:35:00
2:54 AM,45.0,39.4,81,29.89,10.0,West,32.2,39.1,N/A,,Overcast,280,2012-10-04 07:54:00
3:14 AM,44.6,39.2,81,29.91,10.0,West,25.3,33.4,N/A,,Overcast,280,2012-10-04 08:14:00
3:35 AM,44.1,38.5,81,29.93,10.0,West,26.5,33.4,N/A,,Overcast,280,2012-10-04 08:35:00
3:54 AM,44.1,37.4,77,29.92,10.0,West,28.8,36.8,N/A,,Overcast,280,2012-10-04 08:54:00
4:14 AM,42.4,35.6,77,29.94,10.0,West,27.6,39.1,N/A,,Overcast,280,2012-10-04 09:14:00
4:34 AM,40.3,34.2,79,29.96,10.0,West,25.3,38.0,N/A,,Overcast,280,2012-10-04 09:34:00
4:54 AM,39.4,33.8,80,29.96,10.0,West,25.3,39.1,N/A,,Scattered Clouds,280,2012-10-04 09:54:00
5:14 AM,39.6,33.8,80,29.97,10.0,WNW,20.7,38.0,N/A,,Clear,290,2012-10-04 10:14:00
5:34 AM,39.6,34.0,80,29.98,10.0,WNW,20.7,29.9,N/A,,Clear,290,2012-10-04 10:34:00
5:54 AM,39.9,33.6,78,29.99,10.0,West,25.3,33.4,N/A,,Clear,280,2012-10-04 10:54:00
6:14 AM,40.1,34.5,80,30.00,10.0,West,20.7,27.6,N/A,,Mostly Cloudy,280,2012-10-04 11:14:00
6:34 AM,40.6,34.2,78,30.02,10.0,WNW,26.5,40.3,N/A,,Overcast,290,2012-10-04 11:34:00
6:54 AM,40.5,34.0,78,30.03,10.0,WNW,27.6,38.0,N/A,,Overcast,300,2012-10-04 11:54:00
7:15 AM,39.9,33.8,79,30.04,10.0,WNW,29.9,36.8,N/A,,Overcast,290,2012-10-04 12:15:00
7:34 AM,40.1,33.8,78,30.05,10.0,WNW,24.2,35.7,N/A,,Overcast,290,2012-10-04 12:34:00
7:54 AM,39.9,33.1,77,30.05,10.0,WNW,25.3,39.1,N/A,,Overcast,300,2012-10-04 12:54:00
8:14 AM,40.1,32.4,74,30.07,10.0,WNW,28.8,36.8,N/A,,Overcast,290,2012-10-04 13:14:00
8:34 AM,40.6,32.5,73,30.08,10.0,WNW,26.5,36.8,N/A,,Overcast,290,2012-10-04 13:34:00
8:54 AM,40.6,32.9,74,30.09,10.0,WNW,28.8,39.1,N/A,,Overcast,290,2012-10-04 13:54:00
9:14 AM,40.8,33.1,74,30.09,10.0,WNW,24.2,40.3,N/A,,Overcast,300,2012-10-04 14:14:00
9:34 AM,41.7,32.9,71,30.10,10.0,WNW,29.9,39.1,N/A,,Overcast,290,2012-10-04 14:34:00
9:54 AM,41.5,32.5,70,30.11,10.0,WNW,26.5,38.0,N/A,,Overcast,300,2012-10-04 14:54:00
10:15 AM,42.4,31.8,66,30.12,10.0,WNW,26.5,41.4,N/A,,Overcast,300,2012-10-04 15:15:00
10:35 AM,43.0,31.6,64,30.13,10.0,WNW,29.9,38.0,N/A,,Overcast,290,2012-10-04 15:35:00
10:55 AM,43.5,32.0,64,30.14,10.0,WNW,26.5,38.0,N/A,,Overcast,300,2012-10-04 15:55:00
11:14 AM,43.9,31.6,62,30.14,10.0,WNW,26.5,36.8,N/A,,Overcast,290,2012-10-04 16:14:00
11:34 AM,43.9,32.0,63,30.15,10.0,WNW,28.8,39.1,N/A,,Overcast,300,2012-10-04 16:34:00
11:55 AM,44.6,32.0,61,30.15,10.0,WNW,24.2,35.7,N/A,,Overcast,290,2012-10-04 16:55:00
12:14 PM,45.0,31.1,58,30.15,10.0,WNW,24.2,38.0,N/A,,Overcast,300,2012-10-04 17:14:00
12:34 PM,44.8,32.0,61,30.17,10.0,WNW,26.5,36.8,N/A,,Overcast,290,2012-10-04 17:34:00
12:55 PM,45.5,31.3,58,30.16,10.0,WNW,26.5,34.5,N/A,,Overcast,290,2012-10-04 17:55:00
1:34 PM,45.7,31.3,57,30.18,10.0,WNW,23.0,41.4,N/A,,Overcast,300,2012-10-04 18:34:00
1:54 PM,45.9,32.0,58,30.17,10.0,WNW,25.3,39.1,N/A,,Overcast,290,2012-10-04 18:54:00
2:14 PM,46.4,31.1,55,30.18,10.0,WNW,32.2,38.0,N/A,,Overcast,290,2012-10-04 19:14:00
2:34 PM,46.0,31.1,56,30.19,10.0,WNW,26.5,38.0,N/A,,Overcast,300,2012-10-04 19:34:00
2:55 PM,46.0,31.3,56,30.19,10.0,WNW,23.0,35.7,N/A,,Overcast,290,2012-10-04 19:55:00
3:14 PM,46.8,31.1,55,30.19,10.0,WNW,25.3,32.2,N/A,,Overcast,290,2012-10-04 20:14:00
3:34 PM,46.2,31.5,56,30.20,10.0,WNW,19.6,34.5,N/A,,Overcast,290,2012-10-04 20:34:00
3:54 PM,45.9,30.6,55,30.20,10.0,WNW,25.3,35.7,N/A,,Overcast,290,2012-10-04 20:54:00
4:14 PM,47.1,30.2,52,30.20,10.0,WNW,25.3,35.7,N/A,,Overcast,290,2012-10-04 21:14:00
4:34 PM,46.2,30.6,54,30.20,10.0,WNW,23.0,33.4,N/A,,Overcast,300,2012-10-04 21:34:00
4:54 PM,45.9,30.2,54,30.20,10.0,WNW,19.6,28.8,N/A,,Overcast,300,2012-10-04 21:54:00
5:15 PM,45.5,30.7,56,30.21,10.0,WNW,21.9,32.2,N/A,,Overcast,300,2012-10-04 22:15:00
5:35 PM,45.1,30.7,57,30.21,10.0,WNW,23.0,32.2,N/A,,Overcast,300,2012-10-04 22:35:00
5:54 PM,45.1,30.2,56,30.22,10.0,WNW,24.2,29.9,N/A,,Overcast,290,2012-10-04 22:54:00
6:14 PM,44.8,29.8,56,30.22,10.0,WNW,24.2,32.2,N/A,,Overcast,300,2012-10-04 23:14:00
6:35 PM,44.6,30.0,57,30.23,10.0,WNW,21.9,27.6,N/A,,Overcast,290,2012-10-04 23:35:00
6:54 PM,44.1,30.4,59,30.23,10.0,WNW,19.6,29.9,N/A,,Overcast,290,2012-10-04 23:54:00
7:14 PM,43.9,30.6,59,30.23,10.0,WNW,19.6,25.3,N/A,,Overcast,300,2012-10-05 00:14:00
7:34 PM,43.9,30.7,60,30.24,10.0,WNW,18.4,25.3,N/A,,Overcast,290,2012-10-05 00:34:00
7:54 PM,43.9,30.0,58,30.24,10.0,WNW,19.6,25.3,N/A,,Overcast,290,2012-10-05 00:54:00
9:14 PM,43.9,29.3,57,30.25,10.0,WNW,13.8,20.7,N/A,,Overcast,290,2012-10-05 02:14:00
9:35 PM,43.9,29.5,57,30.25,10.0,WNW,19.6,24.2,N/A,,Overcast,300,2012-10-05 02:35:00
9:54 PM,43.7,29.8,58,30.26,10.0,WNW,16.1,20.7,N/A,,Overcast,290,2012-10-05 02:54:00
10:14 PM,43.7,29.1,57,30.26,10.0,WNW,17.3,27.6,N/A,,Overcast,290,2012-10-05 03:14:00
10:34 PM,43.3,28.4,56,30.26,10.0,WNW,18.4,21.9,N/A,,Overcast,290,2012-10-05 03:34:00
10:55 PM,43.3,27.1,53,30.26,10.0,WNW,21.9,27.6,N/A,,Overcast,290,2012-10-05 03:55:00
11:14 PM,41.7,26.4,55,30.26,10.0,WNW,15.0,20.7,N/A,,Scattered Clouds,290,2012-10-05 04:14:00
11:34 PM,39.6,26.4,59,30.26,10.0,WNW,13.8,-,N/A,,Clear,290,2012-10-05 04:34:00
11:55 PM,38.5,26.6,62,30.26,10.0,West,13.8,-,N/A,,Clear,280,2012-10-05 04:55:00